GW5236 Weather Reports


Display with metric or nautical units.
time (UTC)temp
F
wind
direction
speed
MPH
gust
MPH
rain 1hr
in
rain 24hr
in
rain mn
in
humidity
%
barometer
mb
20260509183507 68 175 6.0 16.0 0.00 0.06 0.03 64 1007.3
20260509183016 68 134 6.0 16.0 0.00 0.06 0.03 63 1007.4
20260509182507 68 136 5.0 15.0 0.00 0.06 0.03 64 1007.5
20260509182009 68 183 6.0 10.0 0.00 0.06 0.03 64 1007.5
20260509181520 68 128 5.0 12.0 0.00 0.06 0.03 64 1007.5
20260509181012 67 185 5.0 12.0 0.00 0.06 0.03 66 1007.5
20260509180508 67 239 4.0 12.0 0.00 0.06 0.03 64 1007.5
20260509180023 67 146 5.0 12.0 0.00 0.06 0.03 65 1007.6
20260509175504 67 141 6.0 12.0 0.00 0.06 0.03 64 1007.6
20260509175004 67 194 6.0 12.0 0.00 0.06 0.03 63 1007.6
20260509174509 67 188 6.0 11.0 0.00 0.06 0.03 63 1007.7
20260509174005 67 136 5.0 11.0 0.00 0.06 0.03 66 1007.8
20260509173503 67 194 6.0 13.0 0.00 0.06 0.03 64 1008.0
20260509173012 66 229 6.0 13.0 0.00 0.06 0.03 66 1007.8
20260509172008 66 178 5.0 11.0 0.00 0.06 0.03 68 1008.0
20260509171532 65 219 5.0 10.0 0.00 0.06 0.03 67 1008.0
20260509171010 65 211 4.0 9.0 0.00 0.06 0.03 66 1008.0
20260509170030 66 187 4.0 12.0 0.00 0.06 0.03 69 1008.0
20260509165010 65 149 4.0 14.0 0.00 0.06 0.03 66 1008.0
20260509164507 65 190 6.0 14.0 0.00 0.06 0.03 69 1008.0
20260509164006 65 142 7.0 14.0 0.00 0.06 0.03 69 1008.1
20260509163503 64 186 5.0 12.0 0.00 0.06 0.03 70 1008.0
20260509163015 64 140 5.0 14.0 0.00 0.06 0.03 69 1008.1
20260509162506 64 278 4.0 14.0 0.00 0.06 0.03 71 1008.1
20260509162007 64 173 3.0 14.0 0.00 0.06 0.03 71 1008.1
20260509161516 64 152 6.0 14.0 0.00 0.06 0.03 69 1007.9
20260509161004 64 175 5.0 14.0 0.00 0.06 0.03 71 1008.0
20260509160508 64 258 3.0 12.0 0.00 0.06 0.03 73 1007.9
20260509160022 63 190 6.0 9.0 0.00 0.06 0.03 72 1008.0
20260509155509 63 196 2.0 9.0 0.00 0.06 0.03 74 1007.9
20260509155009 62 160 4.0 15.0 0.00 0.06 0.03 75 1007.9
20260509154524 62 166 6.0 15.0 0.00 0.06 0.03 74 1007.9
20260509153504 62 271 4.0 16.0 0.00 0.06 0.03 72 1007.9
20260509153013 62 46 3.0 12.0 0.00 0.06 0.03 75 1007.9
20260509152504 62 186 4.0 12.0 0.00 0.06 0.03 76 1007.8
20260509152009 62 177 4.0 10.0 0.00 0.06 0.03 76 1007.8
20260509151518 62 198 5.0 10.0 0.00 0.06 0.03 77 1007.8
20260509151004 61 275 3.0 11.0 0.00 0.06 0.03 76 1007.9
20260509150504 61 267 4.0 11.0 0.00 0.06 0.03 76 1008.0
20260509150030 61 242 4.0 11.0 0.00 0.06 0.03 77 1007.9
20260509145511 61 224 4.0 11.0 0.00 0.06 0.03 77 1007.9
20260509144531 61 202 4.0 9.0 0.00 0.06 0.03 79 1007.8
20260509144012 61 304 2.0 9.0 0.00 0.06 0.03 79 1007.6
20260509143512 60 186 4.0 9.0 0.00 0.06 0.03 79 1007.5
20260509143026 60 129 2.0 11.0 0.00 0.06 0.03 81 1007.6
20260509142005 61 213 5.0 9.0 0.00 0.06 0.03 79 1007.5
20260509141521 60 157 3.0 7.0 0.00 0.06 0.03 82 1007.5
20260509141007 60 259 3.0 8.0 0.00 0.06 0.03 81 1007.5
20260509140504 60 232 3.0 8.0 0.00 0.06 0.03 83 1007.5
20260509140020 59 170 1.0 9.0 0.00 0.06 0.03 86 1007.5
20260509135505 58 306 3.0 9.0 0.00 0.06 0.03 86 1007.5
20260509135013 57 239 3.0 7.0 0.00 0.06 0.03 86 1007.7
20260509134521 57 183 3.0 7.0 0.00 0.06 0.03 87 1007.8
20260509134015 57 279 2.0 10.0 0.00 0.06 0.03 87 1007.7
20260509133504 57 324 4.0 10.0 0.00 0.06 0.03 86 1007.9
20260509133005 57 171 3.0 10.0 0.00 0.06 0.03 87 1007.9
20260509132505 56 303 4.0 10.0 0.00 0.06 0.03 88 1008.0
20260509132004 56 220 4.0 8.0 0.00 0.06 0.03 88 1007.9
20260509131514 56 183 1.0 7.0 0.00 0.06 0.03 90 1007.8
20260509131007 56 193 2.0 7.0 0.00 0.06 0.03 90 1007.9
20260509130507 55 208 3.0 7.0 0.00 0.06 0.03 91 1007.9
20260509130018 55 267 1.0 5.0 0.00 0.06 0.03 92 1007.9
20260509125501 54 143 2.0 7.0 0.00 0.06 0.03 92 1007.9
20260509125000 54 198 3.0 7.0 0.00 0.06 0.03 92 1007.9
20260509124508 54 198 2.0 5.0 0.00 0.06 0.03 92 1007.9
20260509124003 54 215 1.0 5.0 0.00 0.06 0.03 92 1007.8
20260509123503 53 205 2.0 6.0 0.00 0.06 0.03 93 1007.9
20260509123007 53 188 2.0 6.0 0.00 0.06 0.03 92 1007.9
20260509122504 53 159 2.0 4.0 0.00 0.06 0.03 93 1008.2
20260509122008 53 186 1.0 4.0 0.00 0.06 0.03 93 1008.2
20260509121517 53 197 2.0 4.0 0.00 0.06 0.03 93 1008.2
20260509121005 53 198 1.0 4.0 0.00 0.06 0.03 93 1008.1
20260509120507 53 198 1.0 3.0 0.00 0.06 0.03 93 1008.1
20260509120018 53 164 1.0 3.0 0.00 0.06 0.03 93 1008.1
20260509115507 53 159 1.0 3.0 0.00 0.06 0.03 93 1008.0
20260509115009 53 175 1.0 3.0 0.00 0.06 0.03 93 1008.1
20260509114527 53 184 1.0 3.0 0.00 0.06 0.03 93 1008.0
20260509114000 53 261 0.0 4.0 0.00 0.06 0.03 93 1007.9
20260509113503 53 160 2.0 4.0 0.00 0.06 0.03 93 1007.8
20260509113007 53 148 1.0 3.0 0.00 0.06 0.03 93 1007.9
20260509112503 53 242 1.0 7.0 0.00 0.06 0.03 93 1007.7
20260509112003 53 175 1.0 7.0 0.00 0.06 0.03 93 1007.6
20260509111508 53 180 2.0 6.0 0.00 0.06 0.03 93 1007.6
20260509111004 53 155 1.0 5.0 0.00 0.06 0.03 93 1007.6
20260509110504 53 145 1.0 3.0 0.00 0.06 0.03 92 1007.6
20260509110017 53 188 1.0 4.0 0.00 0.06 0.03 92 1007.7
20260509105505 53 171 2.0 4.0 0.00 0.06 0.03 92 1007.6
20260509105010 53 132 3.0 5.0 0.00 0.06 0.03 92 1007.5
20260509104522 53 190 2.0 5.0 0.00 0.06 0.03 92 1007.8
20260509104008 53 157 2.0 6.0 0.00 0.06 0.03 92 1007.7
20260509103509 53 180 1.0 6.0 0.00 0.06 0.03 91 1007.6
20260509103004 53 213 2.0 6.0 0.00 0.06 0.03 91 1007.4
20260509102506 53 138 3.0 6.0 0.00 0.06 0.03 91 1007.5
20260509102006 53 182 2.0 6.0 0.00 0.06 0.03 91 1007.6
20260509101507 53 200 3.0 6.0 0.00 0.06 0.03 91 1007.6
20260509101003 53 180 2.0 9.0 0.00 0.06 0.03 91 1007.6
20260509100504 53 177 3.0 9.0 0.00 0.06 0.03 91 1007.6
20260509100020 53 171 3.0 8.0 0.00 0.06 0.03 91 1007.6
20260509095504 53 226 3.0 10.0 0.00 0.06 0.03 91 1007.8
20260509095004 53 275 3.0 10.0 0.00 0.06 0.03 91 1007.7
20260509094521 53 170 3.0 9.0 0.00 0.06 0.03 91 1007.7
20260509094008 53 234 2.0 7.0 0.00 0.06 0.03 92 1007.8
20260509093507 53 192 2.0 11.0 0.00 0.06 0.03 92 1007.8
20260509093024 53 197 3.0 11.0 0.00 0.06 0.03 92 1007.7
20260509092508 53 197 4.0 8.0 0.00 0.06 0.03 92 1007.8
20260509092010 53 171 3.0 8.0 0.00 0.06 0.03 92 1007.8
20260509091517 53 154 3.0 8.0 0.00 0.06 0.03 92 1007.8
20260509091004 53 171 3.0 8.0 0.00 0.06 0.03 92 1007.9
20260509090503 53 207 3.0 8.0 0.00 0.06 0.03 92 1007.9
20260509090014 53 202 2.0 9.0 0.00 0.06 0.03 92 1007.8
20260509084517 53 175 2.0 10.0 0.00 0.06 0.03 92 1007.9
20260509083021 53 205 1.0 6.0 0.00 0.06 0.03 92 1007.9
20260509081524 53 196 1.0 7.0 0.00 0.06 0.03 92 1008.0
20260509080506 53 194 2.0 8.0 0.00 0.06 0.03 92 1008.0
20260509080012 53 215 4.0 7.0 0.00 0.06 0.03 93 1008.1
20260509075506 53 238 3.0 6.0 0.01 0.06 0.03 93 1008.1
20260509075005 53 172 1.0 6.0 0.01 0.06 0.03 93 1008.2
20260509074512 53 212 2.0 6.0 0.01 0.06 0.03 93 1008.3
20260509073504 53 186 1.0 4.0 0.01 0.06 0.03 93 1008.4
20260509073018 53 186 2.0 4.0 0.01 0.06 0.03 93 1008.5
20260509071522 53 212 0.0 3.0 0.03 0.06 0.03 93 1008.6
20260509070026 53 192 1.0 4.0 0.03 0.06 0.03 92 1008.6
20260509065510 53 222 1.0 4.0 0.02 0.05 0.02 92 1008.7
20260509065007 53 185 2.0 4.0 0.02 0.05 0.02 92 1008.6
20260509064512 53 251 1.0 4.0 0.02 0.05 0.02 92 1008.7
20260509064008 53 173 1.0 6.0 0.02 0.05 0.02 92 1008.7
20260509063508 53 134 1.0 6.0 0.02 0.05 0.02 91 1008.6
20260509063015 53 200 2.0 6.0 0.02 0.05 0.02 91 1008.7
20260509062507 53 311 3.0 9.0 0.02 0.05 0.02 91 1008.7
20260509062013 54 195 2.0 9.0 0.01 0.04 0.01 91 1008.8
20260509061520 54 197 3.0 8.0 0.00 0.03 0.00 91 1008.9
20260509061008 53 202 3.0 8.0 0.00 0.03 0.00 91 1008.9
20260509060508 54 155 3.0 8.0 0.00 0.03 0.00 91 1009.0
20260509060025 54 200 3.0 8.0 0.00 0.03 0.00 90 1009.0
20260509055508 54 179 2.0 11.0 0.00 0.03 0.00 90 1009.1
20260509055012 54 264 2.0 11.0 0.00 0.03 0.00 90 1009.1
20260509054523 54 163 3.0 8.0 0.00 0.03 0.00 90 1009.2
20260509054005 54 171 2.0 6.0 0.00 0.03 0.00 90 1009.2
20260509052501 54 167 2.0 7.0 0.00 0.03 0.00 90 1009.3
20260509052000 54 190 2.0 7.0 0.00 0.03 0.00 89 1009.3
20260509051504 54 218 3.0 9.0 0.00 0.03 0.00 89 1009.3
20260509051000 54 182 2.0 9.0 0.00 0.03 0.00 89 1009.3
20260509050504 54 198 2.0 9.0 0.00 0.03 0.00 90 1009.3
20260509050005 53 161 2.0 9.0 0.00 0.03 0.00 90 1009.4
20260509044506 53 194 3.0 7.0 0.00 0.03 0.00 90 1009.5
20260509043508 53 204 2.0 8.0 0.00 0.03 0.00 90 1009.5
20260509043010 53 211 2.0 5.0 0.00 0.03 0.00 90 1009.5
20260509042005 53 199 2.0 5.0 0.01 0.03 0.00 90 1009.6
20260509041001 53 194 2.0 6.0 0.01 0.03 0.00 90 1009.7
20260509040500 53 151 3.0 7.0 0.01 0.03 0.00 90 1009.8
20260509040004 53 205 2.0 7.0 0.01 0.03 0.00 90 1009.9
20260509035508 53 184 4.0 7.0 0.01 0.03 0.03 90 1009.9
20260509034532 53 200 4.0 7.0 0.02 0.03 0.03 90 1010.0
20260509033504 53 173 4.0 7.0 0.02 0.03 0.03 90 1010.1
20260509033011 53 167 3.0 6.0 0.02 0.03 0.03 90 1010.1
20260509032505 53 194 2.0 5.0 0.01 0.02 0.02 91 1010.2
20260509031522 53 157 2.0 4.0 0.01 0.02 0.02 92 1010.3
20260509031004 53 180 1.0 2.0 0.01 0.02 0.02 93 1010.4
20260509025500 53 143 0.0 2.0 0.01 0.02 0.02 93 1010.4
20260509025001 53 143 0.0 2.0 0.00 0.01 0.01 93 1010.5
20260509024505 53 143 0.0 2.0 0.00 0.01 0.01 93 1010.5
20260509024003 53 63 0.0 2.0 0.00 0.01 0.01 93 1010.5
20260509023006 53 63 0.0 2.0 0.00 0.01 0.01 93 1010.7
20260509022505 53 63 0.0 2.0 0.00 0.01 0.01 93 1010.6
20260509021517 53 63 0.0 2.0 0.01 0.01 0.01 93 1010.6
20260509021008 53 63 0.0 2.0 0.01 0.01 0.01 93 1010.4
20260509020509 53 49 0.0 2.0 0.01 0.01 0.01 93 1010.6
20260509020018 53 339 0.0 2.0 0.01 0.01 0.01 93 1010.6
20260509015006 53 339 0.0 2.0 0.01 0.01 0.01 92 1010.6
20260509014506 53 339 0.0 0.0 0.01 0.01 0.01 91 1010.6
20260509014004 53 339 0.0 0.0 0.01 0.01 0.01 91 1010.5
20260509013504 54 339 0.0 0.0 0.01 0.01 0.01 91 1010.5
20260509013010 54 339 0.0 0.0 0.01 0.01 0.01 91 1010.5
20260509012505 54 339 0.0 0.0 0.01 0.01 0.01 90 1010.5
20260509012005 54 339 0.0 0.0 0.01 0.01 0.01 90 1010.4
20260509011512 54 339 0.0 1.0 0.00 0.00 0.00 90 1010.3
20260509011003 54 339 0.0 1.0 0.00 0.00 0.00 90 1010.2
20260509010508 54 339 0.0 1.0 0.00 0.00 0.00 89 1010.3
20260509010020 54 339 0.0 1.0 0.00 0.00 0.00 88 1010.4
20260509005507 54 339 0.0 1.0 0.00 0.00 0.00 88 1010.4
20260509005010 54 339 0.0 2.0 0.00 0.00 0.00 87 1010.3
20260509004528 55 339 0.0 2.0 0.00 0.00 0.00 88 1010.4
20260509003506 55 339 0.0 2.0 0.00 0.00 0.00 87 1010.3
20260509003009 55 339 0.0 2.0 0.00 0.00 0.00 86 1010.3
20260509002505 55 339 0.0 2.0 0.00 0.00 0.00 85 1010.1
20260509002005 55 339 0.0 2.0 0.00 0.00 0.00 85 1009.9
20260509001514 56 339 0.0 0.0 0.00 0.00 0.00 83 1009.9
20260509001003 56 339 0.0 2.0 0.00 0.00 0.00 83 1009.9
20260509000503 56 339 0.0 2.0 0.00 0.00 0.00 83 1009.8
20260509000013 56 339 0.0 2.0 0.00 0.00 0.00 80 1009.8
20260508235507 57 339 0.0 2.0 0.00 0.00 0.00 80 1009.8
20260508235008 57 339 0.0 2.0 0.00 0.00 0.00 78 1009.7
20260508234525 57 339 0.0 2.0 0.00 0.00 0.00 77 1009.6
20260508234007 58 339 0.0 2.0 0.00 0.00 0.00 74 1009.5
20260508232005 59 329 0.0 8.0 0.00 0.00 0.00 67 1009.5
20260508231514 59 329 1.0 8.0 0.00 0.00 0.00 65 1009.4
20260508231004 60 272 2.0 9.0 0.00 0.00 0.00 59 1009.5
20260508230503 60 283 2.0 9.0 0.00 0.00 0.00 59 1009.5
20260508230013 60 260 3.0 8.0 0.00 0.00 0.00 59 1009.7
20260508225504 60 294 3.0 12.0 0.00 0.00 0.00 59 1009.7
20260508225004 60 266 3.0 12.0 0.00 0.00 0.00 59 1009.8
20260508224515 61 167 2.0 8.0 0.00 0.00 0.00 58 1009.8
20260508224011 61 152 1.0 6.0 0.00 0.00 0.00 58 1009.7
20260508223508 61 156 2.0 6.0 0.00 0.00 0.00 58 1009.6
20260508223025 61 228 1.0 5.0 0.00 0.00 0.00 58 1009.6
20260508222513 61 216 1.0 5.0 0.00 0.00 0.00 57 1009.6
20260508221006 62 291 1.0 9.0 0.00 0.00 0.00 56 1009.5
20260508220505 62 147 1.0 7.0 0.00 0.00 0.00 54 1009.5
20260508220010 62 246 2.0 8.0 0.00 0.00 0.00 54 1009.5
20260508215503 63 186 3.0 10.0 0.00 0.00 0.00 52 1009.5
20260508215004 63 142 3.0 10.0 0.00 0.00 0.00 51 1009.5
20260508214531 63 196 3.0 10.0 0.00 0.00 0.00 50 1009.4
20260508214006 64 178 3.0 7.0 0.00 0.00 0.00 49 1009.3
20260508213503 64 319 2.0 13.0 0.00 0.00 0.00 50 1009.3
20260508213019 64 207 5.0 13.0 0.00 0.00 0.00 48 1009.3
20260508212505 64 153 4.0 15.0 0.00 0.00 0.00 50 1009.3
20260508212009 64 186 4.0 15.0 0.00 0.00 0.00 48 1009.3
20260508211524 64 165 4.0 10.0 0.00 0.00 0.00 46 1009.3
20260508211009 64 183 4.0 14.0 0.00 0.00 0.00 47 1009.3
20260508210508 64 221 5.0 14.0 0.00 0.00 0.00 47 1009.3
20260508210025 64 184 5.0 13.0 0.00 0.00 0.00 47 1009.3
20260508205504 64 179 6.0 17.0 0.00 0.00 0.00 47 1009.4
20260508205007 64 186 6.0 22.0 0.00 0.00 0.00 47 1009.4
20260508204519 64 213 9.0 22.0 0.00 0.00 0.00 46 1009.3
20260508204005 65 201 8.0 16.0 0.00 0.00 0.00 46 1009.3
20260508203505 65 271 6.0 13.0 0.00 0.00 0.00 48 1009.5
20260508203020 65 231 4.0 14.0 0.00 0.00 0.00 48 1009.6
20260508202508 65 126 3.0 15.0 0.00 0.00 0.00 51 1009.7
20260508202009 64 195 3.0 15.0 0.00 0.00 0.00 50 1009.7
20260508201521 64 165 5.0 15.0 0.00 0.00 0.00 48 1009.9
20260508201010 64 234 4.0 13.0 0.00 0.00 0.00 48 1009.9
20260508200508 64 190 7.0 13.0 0.00 0.00 0.00 48 1010.0
20260508200023 64 175 5.0 13.0 0.00 0.00 0.00 48 1010.1
20260508195508 64 157 5.0 15.0 0.00 0.00 0.00 50 1010.3
20260508195015 64 185 5.0 15.0 0.00 0.00 0.00 48 1010.3
20260508194510 64 156 6.0 16.0 0.00 0.00 0.00 48 1010.3
20260508194010 64 219 9.0 16.0 0.00 0.00 0.00 47 1010.4
20260508193510 64 163 8.0 18.0 0.00 0.00 0.00 46 1010.5
20260508193028 64 180 7.0 20.0 0.00 0.00 0.00 47 1010.6
20260508192513 64 186 6.0 20.0 0.00 0.00 0.00 47 1010.6
20260508192009 65 184 6.0 14.0 0.00 0.00 0.00 48 1010.6
20260508191532 65 239 3.0 12.0 0.00 0.00 0.00 50 1010.8
20260508191008 64 225 5.0 12.0 0.00 0.00 0.00 50 1010.8
20260508190509 64 225 5.0 12.0 0.00 0.00 0.00 50 1010.8
20260508190046 64 106 3.0 15.0 0.00 0.00 0.00 51 1010.9
20260508185507 64 202 4.0 15.0 0.00 0.00 0.00 49 1010.8
20260508185008 65 153 4.0 11.0 0.00 0.00 0.00 49 1010.9
20260508184533 65 119 4.0 11.0 0.00 0.00 0.00 49 1011.0